This demonstration page uses our WeatherBlox Daily Observations layout. Learn more.

41.55636, -103.73856

Hourly Observations for August 26, 2016

Temp ( °F °C ) Dew Point ( °F °C ) Humidity (%) Winds ( mph kmh ) Pressure ( in mb ) Visibility ( mi km ) Precip ( " mm )
12:53 am 00:53 Mostly Cloudy 56 13.3 47 8.3 72 72 E 9 15 30.1 1019 10 16.0934 0 0
1:53 am 01:53 Clear 56 13.3 48 8.9 75 75 E 9 15 30.08 1019 10 16.0934 0 0
2:53 am 02:53 Cloudy 56 13.3 49 9.4 77 77 E 8 13 30.06 1018 10 16.0934 0 0
3:53 am 03:53 Cloudy 56 13.3 49 9.4 77 77 ESE 8 13 30.06 1018 10 16.0934 0 0
4:53 am 04:53 Cloudy 56 13.3 50 10 81 81 ESE 6 9 30.04 1017 10 16.0934 0 0
5:53 am 05:53 Clear 55 12.8 50 10 83 83 Calm 30.04 1017 10 16.0934 0 0
6:53 am 06:53 Sunny 56 13.3 51 10.6 84 84 E 9 15 30.04 1017 10 16.0934 0 0
7:14 am 07:14 Mostly Cloudy 57 14 52 11 82 82 E 3 6 30.03 1017 10 16.0934 0 0
7:53 am 07:53 Cloudy with Light Rain 58 14.4 53 11.7 84 84 E 3 6 30.06 1018 9 14.48406 0 0.0254
8:17 am 08:17 Cloudy with Light Rain 58 14.4 54 12.2 87 87 E 6 9 30.03 1017 10 16.0934 0.01 0.254
8:53 am 08:53 Cloudy with Light Rain 58 14.4 55 12.8 90 90 ESE 13 20 30.02 1017 10 16.0934 0.01 0.254
9:17 am 09:17 Cloudy 60 15.6 55 12.8 84 84 WNW 8 13 30 1016 10 16.0934 0 0.0254
9:30 am 09:30 Cloudy 61 16 55 13 83 83 WNW 3 6 30 1016 10 16.0934 0 0
9:37 am 09:37 Cloudy 60 15.6 56 13.3 86 86 WNW 6 9 30 1016 10 16.0934 0 0.0254
9:50 am 09:50 Mostly Cloudy 61 16 55 13 83 83 NW 5 7 30 1016 10 16.0934 0 0
9:53 am 09:53 Mostly Cloudy 60 15.6 56 13.3 86 86 VRB 5 7 30.04 1017 10 16.0934 0 0.0254
10:03 am 10:03 Partly Cloudy 61 16 55 13 83 83 NW 5 7 30 1016 10 16.0934 0 0
10:37 am 10:37 Mostly Cloudy 63 17.2 55 12.8 76 76 NNE 3 6 29.97 1015 10 16.0934 0 0
10:53 am 10:53 Cloudy 64 17.8 54 12.2 70 70 VRB 3 6 30.04 1017 10 16.0934 0 0
11:36 am 11:36 Partly Cloudy 64 18 55 13 73 73 ESE 5 7 29.97 1015 10 16.0934 0 0
11:53 am 11:53 Sunny 67 19.4 56 13.3 68 68 VRB 5 7 30.02 1017 10 16.0934 0 0
12:23 pm 12:23 Mostly Cloudy 69 20.6 57 13.9 66 66 SSE 5 7 29.94 1014 10 16.0934 0 0
12:53 pm 12:53 Mostly Cloudy 70 21.1 57 13.9 64 64 E 10 17 30 1016 10 16.0934 0 0
1:09 pm 13:09 Partly Cloudy 70 21.1 56 13.3 61 61 ESE 13 20 29.88 1012 10 16.0934 0 0
1:53 pm 13:53 Mostly Sunny 73 22.8 56 13.3 55 55 E 14 22 29.97 1015 10 16.0934 0 0
2:53 pm 14:53 Sunny 70 21.1 53 11.7 55 55 E 14 22 29.96 1015 10 16.0934 0 0
3:53 pm 15:53 Sunny 68 20 53 11.7 59 59 ESE 15 24 29.97 1015 10 16.0934 0 0
4:53 pm 16:53 Mostly Sunny 67 19.4 53 11.7 61 61 ESE 13 20 29.95 1014 10 16.0934 0 0
5:53 pm 17:53 Sunny 67 19.4 52 11.1 59 59 SE 16 26 29.96 1015 10 16.0934 0 0
6:53 pm 18:53 Sunny 66 18.9 54 12.2 65 65 ESE 13 20 29.94 1014 10 16.0934 0 0
7:53 pm 19:53 Clear 60 15.6 55 12.8 84 84 ESE 6 9 29.96 1014 10 16.0934 0 0
8:53 pm 20:53 Clear 58 14.4 55 12.8 90 90 SE 7 11 29.98 1015 10 16.0934 0 0
9:53 pm 21:53 Mostly Clear 57 13.9 54 12.2 90 90 ESE 10 17 29.99 1016 10 16.0934 0 0
10:53 pm 22:53 Mostly Clear 58 14.4 55 12.8 90 90 ESE 9 15 29.99 1016 10 16.0934 0 0
11:53 pm 23:53 Mostly Cloudy 57 13.9 54 12.2 90 90 NNE 9 15 29.98 1015 10 16.0934 0 0

Powered by AerisWeather